When you browse on this site, cookies collect data to enhance your experience and personalize the content and advertising you see.
Visit our Privacy Policy to learn more. By continuing to use the site, you agree to this use of cookies and data.
  • In Latvia
  • List of Countries
  • For 7 days
  • Water Temperature
  • Satellite Maps
  • Weather Map
  • Weather Widgets
  • user-avatar
    Login

    Hourly Weather Nyon

    Today, 19 July, Friday

    Time Temperature Precipitation Wind Pressure Humidity
    00:00 +18°C° 0 mm 1 mps 728 mmHg 87%
    01:00 +18°C° 0 mm 1 mps 728 mmHg 88%
    02:00 +18°C° 0 mm 1 mps 728 mmHg 90%
    03:00 +16°C° 0 mm 1 mps 728 mmHg 91%
    04:00 +18°C° 0 mm 1 mps 728 mmHg 89%
    05:00 +17°C° 0 mm 0 mps 728 mmHg 87%
    06:00 +18°C° 0 mm 0 mps 728 mmHg 85%
    07:00 +20°C° 0 mm 0 mps 728 mmHg 77%
    08:00 +24°C° 0 mm 1 mps 728 mmHg 69%
    09:00 +26°C° 0 mm 1 mps 729 mmHg 61%
    10:00 +26°C° 0 mm 1 mps 728 mmHg 57%
    11:00 +27°C° 0 mm 1 mps 728 mmHg 53%
    12:00 +28°C° 0 mm 2 mps 728 mmHg 50%
    13:00 +29°C° 0 mm 2 mps 728 mmHg 49%
    14:00 +29°C° 0 mm 2 mps 728 mmHg 49%
    15:00 +29°C° 0 mm 2 mps 727 mmHg 49%
    16:00 +28°C° 0 mm 1 mps 727 mmHg 55%
    17:00 +27°C° 0 mm 1 mps 727 mmHg 62%
    18:00 +24°C° 0 mm 0 mps 727 mmHg 69%
    19:00 +24°C° 0 mm 1 mps 728 mmHg 71%
    20:00 +22°C° 0 mm 1 mps 728 mmHg 74%
    21:00 +21°C° 0 mm 1 mps 728 mmHg 77%
    22:00 +20°C° 0 mm 1 mps 728 mmHg 78%
    23:00 +20°C° 0 mm 1 mps 727 mmHg 79%

    Tomorrow, 20 July, Saturday

    Time Temperature Precipitation Wind Pressure Humidity
    00:00 +20°C° 0 mm 1 mps 727 mmHg 80%
    01:00 +19°C° 0 mm 1 mps 727 mmHg 81%
    02:00 +19°C° 0 mm 1 mps 727 mmHg 81%
    03:00 +19°C° 0 mm 1 mps 727 mmHg 82%
    04:00 +20°C° 0 mm 1 mps 727 mmHg 80%
    05:00 +21°C° 0 mm 1 mps 727 mmHg 78%
    06:00 +22°C° 0 mm 1 mps 728 mmHg 75%
    07:00 +24°C° 0 mm 1 mps 728 mmHg 68%
    08:00 +25°C° 0 mm 2 mps 728 mmHg 62%
    09:00 +27°C° 0 mm 3 mps 728 mmHg 55%
    10:00 +29°C° 0 mm 3 mps 728 mmHg 51%
    11:00 +30°C° 0 mm 3 mps 728 mmHg 47%
    12:00 +32°C° 0 mm 4 mps 729 mmHg 42%
    13:00 +32°C° 0 mm 4 mps 728 mmHg 43%
    14:00 +31°C° 0 mm 3 mps 728 mmHg 44%
    15:00 +31°C° 0 mm 3 mps 728 mmHg 45%
    16:00 +30°C° 0 mm 3 mps 728 mmHg 52%
    17:00 +29°C° 0 mm 3 mps 728 mmHg 59%
    18:00 +27°C° 0 mm 2 mps 729 mmHg 67%
    19:00 +26°C° 0 mm 2 mps 729 mmHg 68%
    20:00 +25°C° 0 mm 2 mps 729 mmHg 70%
    21:00 +23°C° 0 mm 2 mps 730 mmHg 71%
    22:00 +23°C° 0.2 mm 2 mps 730 mmHg 76%
    23:00 +21°C° 0.2 mm 2 mps 730 mmHg 80%

    Day after tomorrow, 21 July, Sunday

    Time Temperature Precipitation Wind Pressure Humidity
    00:00 +20°C° 0.2 mm 2 mps 730 mmHg 84%
    01:00 +20°C° 0.2 mm 2 mps 730 mmHg 86%
    02:00 +19°C° 0.2 mm 2 mps 730 mmHg 87%
    03:00 +20°C° 0.2 mm 1 mps 730 mmHg 89%
    04:00 +21°C° 0.1 mm 1 mps 731 mmHg 88%
    05:00 +22°C° 0.1 mm 1 mps 731 mmHg 87%
    06:00 +23°C° 0.1 mm 1 mps 731 mmHg 86%
    07:00 +24°C° 0.2 mm 1 mps 731 mmHg 79%
    08:00 +26°C° 0.2 mm 1 mps 732 mmHg 71%
    09:00 +28°C° 0.2 mm 1 mps 732 mmHg 64%
    10:00 +29°C° 0.3 mm 1 mps 732 mmHg 61%
    11:00 +30°C° 0.3 mm 1 mps 732 mmHg 59%
    12:00 +31°C° 0.3 mm 1 mps 732 mmHg 56%
    13:00 +31°C° 0.2 mm 1 mps 732 mmHg 56%
    14:00 +31°C° 0.2 mm 1 mps 732 mmHg 55%
    15:00 +32°C° 0.2 mm 1 mps 732 mmHg 55%
    16:00 +30°C° 0.2 mm 1 mps 732 mmHg 62%
    17:00 +29°C° 0.2 mm 1 mps 732 mmHg 70%
    18:00 +28°C° 0.2 mm 1 mps 732 mmHg 77%
    19:00 +26°C° 0.1 mm 1 mps 732 mmHg 79%
    20:00 +25°C° 0.1 mm 1 mps 733 mmHg 81%
    21:00 +24°C° 0.1 mm 1 mps 733 mmHg 84%
    22:00 +23°C° 0.2 mm 1 mps 733 mmHg 86%
    23:00 +23°C° 0.2 mm 1 mps 733 mmHg 88%

    22 July, Monday

    Time Temperature Precipitation Wind Pressure Humidity
    00:00 +22°C° 0.2 mm 1 mps 733 mmHg 90%
    01:00 +22°C° 0.1 mm 1 mps 733 mmHg 91%
    02:00 +21°C° 0.1 mm 1 mps 733 mmHg 92%
    03:00 +21°C° 0.1 mm 1 mps 733 mmHg 92%
    04:00 +22°C° 0 mm 1 mps 733 mmHg 91%
    05:00 +23°C° 0 mm 1 mps 733 mmHg 90%
    06:00 +23°C° 0 mm 1 mps 733 mmHg 89%
    07:00 +25°C° 0 mm 1 mps 733 mmHg 81%
    08:00 +27°C° 0 mm 1 mps 733 mmHg 74%
    09:00 +29°C° 0 mm 1 mps 733 mmHg 66%
    10:00 +30°C° 0 mm 1 mps 733 mmHg 62%
    11:00 +31°C° 0 mm 1 mps 733 mmHg 58%
    12:00 +32°C° 0 mm 1 mps 732 mmHg 54%
    13:00 +33°C° 0.1 mm 1 mps 732 mmHg 52%
    14:00 +33°C° 0.1 mm 1 mps 732 mmHg 51%
    15:00 +33°C° 0.1 mm 1 mps 732 mmHg 50%
    16:00 +32°C° 0 mm 1 mps 732 mmHg 58%
    17:00 +31°C° 0 mm 1 mps 732 mmHg 65%
    18:00 +30°C° 0 mm 1 mps 732 mmHg 73%
    19:00 +28°C° 0 mm 1 mps 732 mmHg 75%
    20:00 +26°C° 0 mm 1 mps 732 mmHg 77%
    21:00 +25°C° 0 mm 1 mps 732 mmHg 80%
    22:00 +24°C° 0 mm 1 mps 732 mmHg 80%
    23:00 +24°C° 0 mm 1 mps 732 mmHg 80%

    23 July, Tuesday

    Time Temperature Precipitation Wind Pressure Humidity
    00:00 +23°C° 0 mm 1 mps 732 mmHg 81%
    01:00 +23°C° 0 mm 1 mps 732 mmHg 82%
    02:00 +22°C° 0 mm 1 mps 732 mmHg 84%
    03:00 +22°C° 0 mm 1 mps 731 mmHg 85%
    04:00 +23°C° 0 mm 1 mps 731 mmHg 83%
    05:00 +22°C° 0 mm 0 mps 731 mmHg 81%
    06:00 +23°C° 0 mm 0 mps 731 mmHg 79%
    07:00 +25°C° 0 mm 0 mps 731 mmHg 72%
    08:00 +27°C° 0 mm 0 mps 731 mmHg 65%
    09:00 +31°C° 0 mm 1 mps 731 mmHg 57%
    10:00 +32°C° 0 mm 1 mps 731 mmHg 53%
    11:00 +33°C° 0 mm 1 mps 731 mmHg 49%
    12:00 +34°C° 0 mm 1 mps 730 mmHg 45%
    13:00 +34°C° 0 mm 1 mps 730 mmHg 44%
    14:00 +34°C° 0 mm 1 mps 730 mmHg 43%
    15:00 +34°C° 0 mm 1 mps 730 mmHg 42%
    16:00 +33°C° 0 mm 1 mps 729 mmHg 50%
    17:00 +32°C° 0 mm 1 mps 729 mmHg 58%
    18:00 +30°C° 0 mm 1 mps 729 mmHg 66%
    19:00 +29°C° 0 mm 1 mps 729 mmHg 68%
    20:00 +27°C° 0 mm 1 mps 729 mmHg 70%
    21:00 +26°C° 0 mm 1 mps 729 mmHg 72%
    22:00 +25°C° 0 mm 1 mps 729 mmHg 73%
    23:00 +25°C° 0 mm 1 mps 729 mmHg 73%

    24 July, Wednesday

    Time Temperature Precipitation Wind Pressure Humidity
    00:00 +24°C° 0 mm 1 mps 729 mmHg 74%
    01:00 +24°C° 0 mm 1 mps 729 mmHg 75%
    02:00 +21°C° 0 mm 0 mps 728 mmHg 75%
    03:00 +21°C° 0 mm 0 mps 728 mmHg 76%
    04:00 +22°C° 0 mm 0 mps 728 mmHg 75%
    05:00 +23°C° 0 mm 0 mps 728 mmHg 74%
    06:00 +24°C° 0 mm 0 mps 728 mmHg 73%
    07:00 +25°C° 0 mm 0 mps 728 mmHg 67%
    08:00 +29°C° 0 mm 1 mps 728 mmHg 60%
    09:00 +31°C° 0 mm 1 mps 728 mmHg 54%
    10:00 +32°C° 0 mm 1 mps 727 mmHg 50%
    11:00 +33°C° 0 mm 1 mps 727 mmHg 46%
    12:00 +34°C° 0 mm 1 mps 727 mmHg 42%
    13:00 +35°C° 0 mm 1 mps 726 mmHg 41%
    14:00 +35°C° 0 mm 1 mps 726 mmHg 40%
    15:00 +35°C° 0 mm 1 mps 726 mmHg 39%
    16:00 +33°C° 0 mm 1 mps 726 mmHg 46%
    17:00 +32°C° 0 mm 1 mps 725 mmHg 54%
    18:00 +28°C° 0 mm 0 mps 725 mmHg 62%
    19:00 +27°C° 0 mm 0 mps 725 mmHg 60%
    20:00 +28°C° 0 mm 1 mps 725 mmHg 59%
    21:00 +27°C° 0 mm 1 mps 726 mmHg 58%
    22:00 +26°C° 0.1 mm 1 mps 725 mmHg 62%
    23:00 +25°C° 0.1 mm 1 mps 725 mmHg 66%
    Show more